Regional Weather Roundup
Issued by NWS Newport/Morehead, NC

Current Version | Previous Version | Graphics & Text | Print | Product List | Glossary Off
Versions: 1 2 3 4 5 6 7 8 9 10 11 12 13 14 15 16 17 18 19 20 21 22 23 24 25 26 27 28 29 30 31 32 33 34 35 36 37 38 39 40 41 42 43 44 45 46 47 48 49 50

000
ASUS42 KMHX 140825
RWRMHX
WEATHER ROUNDUP FOR EASTERN NORTH CAROLINA
NATIONAL WEATHER SERVICE NEWPORT/MOREHEAD CITY NC
300 AM EST THU DEC 14 2017

NOTE: "FAIR" INDICATES FEW OR NO CLOUDS BELOW 12,000 FEET
WITH NO SIGNIFICANT WEATHER AND/OR OBSTRUCTIONS TO VISIBILITY

NCZ015>017-031-032-045>047-102-103-140900-
NORTH COAST

CITY           SKY/WX    TMP DP  RH WIND       PRES   REMARKS
EDENTON        CLEAR     43  26  50 SW13G20   29.72F
ELIZABETH CITY CLEAR     41  26  55 SW16G24   29.70F
KITTY HAWK     SUNNY     40  29  65 SW10G17   29.70F
MANTEO         CLEAR     41  31  67 SW16      29.72F

$$

NCZ045>047-081-094-103-104-140900-
CENTRAL COAST

CITY           SKY/WX    TMP DP  RH WIND       PRES   REMARKS
FRISCO         CLEAR     47  31  53 W13G25    29.78S

$$

NCZ095-097-098-100-101-140900-
SOUTHERN COAST

CITY           SKY/WX    TMP DP  RH WIND       PRES   REMARKS
BEAUFORT       CLEAR     50  29  44 W16G31    29.79F
CEDAR ISLAND   NOT AVBL
JACKSONVILLE   CLEAR     42  26  53 SW9       29.79F
PINEY ISLAND     N/A    N/A N/A N/A SW13      29.78F
WILMINGTON     CLEAR     46  23  40 SW14      29.82S


$$

NCZ011>013-027>030-043-044-078>080-089-090>093-098-140900-
COASTAL PLAIN

CITY           SKY/WX    TMP DP  RH WIND       PRES   REMARKS
AHOSKIE        CLEAR     36  21  53 S5        29.69F
CLINTON        CLEAR     37  25  62 S3        29.77S
ELIZABETHTOWN  NOT AVBL
GOLDSBORO      CLEAR     38  22  51 SW8       29.74S
GREENVILLE     CLEAR     37  23  56 SW12      29.76F
HAVELOCK       CLEAR     45  25  45 SW20G30   29.79F
KENANSVILLE    CLEAR     37  23  56 SW6       29.77S
KINSTON        NOT AVBL
NEW BERN       CLEAR     41  24  51 SW12      29.79S
RICHLANDS      CLEAR     34  25  69 S8        29.79S
ROCKY MOUNT    CLEAR     38  22  52 S12G20    29.71F
WASHINGTON     CLEAR     40  22  50 SW10G17   29.74S
WHITEVILLE     CLEAR     42  23  47 SW10G16   29.79F

$$

AMZ130-135-150-152-154-156-158-170-250-252-270-ANZ085-086-088-633-658-670-140900-
MARINE OBSERVATIONS

STATION/POSITION TIME  TEMP    WIND        PRES    WAVE   SWELL
                       AIR SEA DIR/SP/G            HT/PER HT/PER
                 (UTC) (F)     (DEG/KT/KT) (MB)    (FT/S) (FT/S)
CHESAPEAKE LIGHT NOT AVBL
64 E VA BEACH    0750   51 59  230/ 33/ 39 1004.3    8/ 6
DUCK             0800   45 53  220/ 20/ 28 1005.2
2 E DUCK         0800      55                N/A     2/ 3
OREGON INLET     0800   45 42  210/ 21/ 24 1006.7
13E OREGON INLT  0748      57                N/A     3/ 3   2/ 8
HATTERAS CG      0800   48 51  250/ 16/ 23 1007.7
DIAMOND BUOY     0810   56 74  260/ 27/ 33 1008.1
CAPE LOOKOUT     0800          250/ 25/ 32 1009.0
BEAUFORT LAB     0800   51 50  250/ 12/ 24 1008.6
30 SE NEW RVR IN 0708   56 62  240/ 21/ 29 1009.7
30 SE NEW RVR IN 0800      62                N/A    10/ 6
27 SE WRIGHTSVLE 0708   56 64  240/ 29/ 41 1009.8
5 SE WRIGHTSVLE  0708   52 57  250/ 19/ 27 1009.3
225 S CAPE HAT   0750   66 74  250/ 21/ 27 1011.8    7/ 7   3/10
41 SE CHARLESTON 0800      73  260/ 29/ 35 1011.9

$$




USA.gov is the U.S. government's official web portal to all federal, state and local government web resources and services.